Regional Weather Roundup
Issued by NWS Grand Forks, ND

Home | Current Version | Previous Version | Graphics & Text | Print | Product List | Glossary On
Versions: 1 2 3 4 5 6 7 8 9 10 11 12 13 14 15 16 17 18 19 20 21 22 23 24 25 26 27 28 29 30 31 32 33 34 35 36 37 38 39 40 41 42 43 44 45 46 47 48 49 50
000
ASUS43 KFGF 300631
RWRFGF
PRAIRIE TO PINES  WEATHER ROUNDUP
NATIONAL WEATHER SERVICE EASTERN NORTH DAKOTA/GRAND FORKS ND
100 AM CDT THU MAR 30 2017

 **SATELLITE DATA USED TO AUGMENT SKY COVER AT AUTOMATED STATIONS**
 *****  WEATHER ACROSS EASTERN NORTH DAKOTA  *****

CITY           SKY/WX    TMP DP  RH WIND       PRES   REMARKS
GRAND FORKS    MOCLDY    43  38  82 S14       29.98F
6HR MIN TEMP:  43; 6HR MAX TEMP:  57;

GRAND FRKS AFB FAIR      44  36  74 S21       29.96F
DEVILS LAKE    MOCLDY    45  36  70 S20G29    29.91R
6HR MIN TEMP:  45; 6HR MAX TEMP:  55;

FARGO          FAIR      41  37  86 S13       30.03S
WAHPETON ARPT  FAIR      34  32  93 SW7       30.06R
$$

 ***** WEATHER ACROSS CENTRAL AND WESTERN NORTH DAKOTA  *****

CITY           SKY/WX    TMP DP  RH WIND       PRES   REMARKS
BISMARCK       CLOUDY    50  35  56 S17       29.92F
6HR MIN TEMP:  50; 6HR MAX TEMP:  62;

MINOT          FAIR      49  39  68 W3        29.81F
6HR MIN TEMP:  42; 6HR MAX TEMP:  54;

JAMESTOWN      CLOUDY    40  35  83 S18       29.97S
6HR MIN TEMP:  40; 6HR MAX TEMP:  58;

MINOT AFB      FAIR      42  39  90 SW5       29.80F
GARRISON         N/A     42  36  79 S8        29.84F
WILLISTON      FAIR      44  33  65 CALM      29.81F
6HR MIN TEMP:  41; 6HR MAX TEMP:  61;

DICKINSON      FAIR      41  36  82 S12       29.83F
6HR MIN TEMP:  36; 6HR MAX TEMP:  60;

HETTINGER      FAIR      43  37  79 S15       29.89F
6HR MIN TEMP:  42; 6HR MAX TEMP:  58;

$$

 *****  OTHER AIRPORT OBSERVATIONS IN OUR AREA  *****

CITY           SKY/WX    TMP DP  RH WIND       PRES   REMARKS
WALHALLA       NOT AVBL
GRAFTON AIRPOR MOCLDY    45  39  81 S17       29.97S
VALLEY CITY AR FAIR      39  39 100 S18G24    30.01R
CANDO          NOT AVBL
CAVALIER APRT  FAIR      45  37  76 S15       29.92S
GWINNER        CLEAR     36  34  93 MISG      30.04S
SHEYENNE NWR     N/A     36  34  92 S7        29.95S
ROLLA          CLOUDY    41  41 100 S13G20    29.86S
 ***** THE ABOVE OBSERVATIONS ARE NON NWS ARE NOT QUALITY
       CONTROLLED AND MAY MIS-REPORT RAIN FOR SNOW...
$$

  *****  WEATHER ACROSS NORTHERN MINNESOTA  *****

CITY           SKY/WX    TMP DP  RH WIND       PRES   REMARKS
FLAG ISLAND    FAIR      36  32  87 S12       29.99S
WARROAD        FAIR      43  34  70 S7        30.00S
ROSEAU         FAIR      43  36  75 S12       29.99S
HALLOCK        CLOUDY    45  39  81 S18       29.96R
THF RVR FALLS  FAIR      41  35  79 S14       30.01S
BAUDETTE       FAIR      38  31  76 S9        30.02F
6HR MIN TEMP:  38; 6HR MAX TEMP:  55;

WASKISH        FAIR      37  32  81 S6        30.04S
CROOKSTON      FAIR      39  37  93 SW13      30.03R
STEPHEN NDAWN    N/A     43  37  81 S15         N/A
GREENBUSH NDAW   N/A     43  37  81 S15         N/A
$$
  *****  WEATHER ACROSS CENTRAL AND WEST MINNESOTA  *****

CITY           SKY/WX    TMP DP  RH WIND       PRES   REMARKS
FOSSTON        FAIR      36  30  80 S10       30.03S
BEMIDJI        FAIR      34  31  90 SE8       30.05S
PARK RAPIDS    FAIR      36  28  73 SE7       30.05F
6HR MIN TEMP:  35; 6HR MAX TEMP:  53;

ELBOW LAKE     CLOUDY    37  37  99 CALM      30.05F
6HR MIN TEMP:  34; 6HR MAX TEMP:  49;

WADENA         FAIR      28  28 100 CALM      30.06S
DETROIT LAKES  FAIR      36  34  93 S6        30.05F
MOORHEAD       FAIR      37  36  93 S10       30.05S
FERGUS FALLS   FAIR      36  36 100 SE5       30.09S
MORRIS MN      MOCLDY    39  37  93 E3        30.04S
STAPLES        FAIR      34  30  86 CALM      30.06F
$$
  *****  WEATHER ELSEWHERE ACROSS MINNESOTA  *****

CITY           SKY/WX    TMP DP  RH WIND       PRES   REMARKS
DULUTH         CLOUDY    31  29  92 E10       30.13S WCI  22
6HR MIN TEMP:  30; 6HR MAX TEMP:  34;

INTRNTL FALLS  FAIR      34  27  75 SE7       30.07F
6HR MIN TEMP:  34; 6HR MAX TEMP:  50;

ELY            FAIR      27  23  86 CALM      30.12F
CLOQUET        CLOUDY    30  28  93 E6        30.12F WCI  24
WHEATON        MOCLDY    36  34  93 S5        30.06F
BRAINERD       FAIR      32  29  88 VRB3      30.09F
6HR MIN TEMP:  32; 6HR MAX TEMP:  47;

HIBBING        FAIR      26  25  96 CALM      30.11F
6HR MIN TEMP:  26; 6HR MAX TEMP:  39;

ALEXANDRIA     CLOUDY    37  36  96 CALM      30.05F
6HR MIN TEMP:  35; 6HR MAX TEMP:  48;

SAINT CLOUD    CLOUDY    40  37  89 E3        30.07F
6HR MIN TEMP:  38; 6HR MAX TEMP:  48;

MINNEAPOLIS    CLOUDY    42  36  79 E12       30.06F
6HR MIN TEMP:  42; 6HR MAX TEMP:  45; 6HR PCP: TRACE;

$$

  *****  WEATHER ACROSS SOUTH DAKOTA  *****

CITY           SKY/WX    TMP DP  RH WIND       PRES   REMARKS
SIOUX FALLS    CLOUDY    39  38  96 E13       29.94F
6HR MIN TEMP:  38; 6HR MAX TEMP:  41; 6HR PCP:  0.01;

BROOKINGS      CLOUDY    38  35  89 E10       29.97F
WATERTOWN      CLOUDY    38  36  92 E9        30.00S
6HR MIN TEMP:  38; 6HR MAX TEMP:  43; 6HR PCP: TRACE;

HURON          CLOUDY    41  38  89 E7        29.99F
6HR MIN TEMP:  41; 6HR MAX TEMP:  50;

SISSETON         N/A     41  38  89 S12       30.03F
ABERDEEN       MOCLDY    37  32  82 E7        30.03S
6HR MIN TEMP:  35; 6HR MAX TEMP:  55;

MITCHELL       CLOUDY    41  36  82 NE7       29.98F
PIERRE         FAIR      36  33  89 SE9       29.96F
6HR MIN TEMP:  36; 6HR MAX TEMP:  53;

MOBRIDGE       FAIR      39  31  72 SE12      29.94F
RAPID CITY     FAIR      37  34  89 SE7       29.91F
6HR MIN TEMP:  36; 6HR MAX TEMP:  56;

$$

  *****  SOME WEATHER IN NEARBY STATES *****

CITY           SKY/WX    TMP DP  RH WIND       PRES   REMARKS
GLASGOW MT     CLOUDY    46  34  62 E9        29.76F
6HR MIN TEMP:  46; 6HR MAX TEMP:  58;

GREAT FALLS MT FAIR      49  34  56 SW21G30   29.75F
6HR MIN TEMP:  49; 6HR MAX TEMP:  56;

CHEYENNE WY    FAIR      37  33  85 SW13      29.95F
6HR MIN TEMP:  36; 6HR MAX TEMP:  52;

SCOTTSBLUFF NE FAIR      36  33  89 CALM      29.94S
6HR MIN TEMP:  36; 6HR MAX TEMP:  57;

OMAHA NE       CLOUDY    43  38  82 NE13G20   29.74S
6HR MIN TEMP:  42; 6HR MAX TEMP:  44; 6HR PCP:  0.03;

DES MOINES IA  CLOUDY    44  41  89 E13G24    29.79F
6HR MIN TEMP:  44; 6HR MAX TEMP:  45; 6HR PCP:  0.71;

DAVENPORT IA   HVY RAIN  41  39  93 E21G33    29.82F FOG
6HR MIN TEMP:  42; 6HR MAX TEMP:  44; 6HR PCP:  0.15;

CHICAGO IL     LGT RAIN  43  38  82 NE18      29.97F
6HR MIN TEMP:  43; 6HR MAX TEMP:  46; 6HR PCP:  0.10;

EAU CLAIRE WI  CLOUDY    39  36  89 E10       30.07F
6HR MIN TEMP:  39; 6HR MAX TEMP:  47; 6HR PCP:  0.04;

LA CROSSE WI   CLOUDY    40  35  83 E12       30.04F
6HR MIN TEMP:  40; 6HR MAX TEMP:  45; 6HR PCP:  0.13;

$$

  *****  SOME NATIONAL WEATHER *****

CITY           SKY/WX    TMP DP  RH WIND       PRES   REMARKS
LA GUARDIA NY  FAIR      43  22  43 NE9       30.22F
6HR MIN TEMP:  43; 6HR MAX TEMP:  53;

RALEIGH NC     MOCLDY    58  52  80 SE10G17   30.13R
6HR MIN TEMP:  58; 6HR MAX TEMP:  66;

ATLANTA GA     MOCLDY    69  60  73 CALM      29.98S
6HR MIN TEMP:  69; 6HR MAX TEMP:  80;

NEW ORLEANS LA MOCLDY    74  69  85 S13G22    29.88F
6HR MIN TEMP:  73; 6HR MAX TEMP:  76;

OKLAHOMA CITY  MOCLDY    47  39  74 NW16      29.77F
6HR MIN TEMP:  46; 6HR MAX TEMP:  54;

ALBUQUERQUE NM FAIR      49  38  65 S12       30.06F
6HR MIN TEMP:  49; 6HR MAX TEMP:  61;

SALT LAKE CITY MOCLDY    51  35  54 SE7       30.01F
6HR MIN TEMP:  51; 6HR MAX TEMP:  57;

LOS ANGELES CA FAIR      63  54  72 S3        30.00S
6HR MIN TEMP:  62; 6HR MAX TEMP:  71;

BOISE ID       LGT RAIN



USA.gov is the U.S. government's official web portal to all federal, state and local government web resources and services.